Weather History for Barranquilla, Colombia

Change the Weather History Date:

Thursday, March 28, 2013

  Actual Average Record
Temperature  
Mean Temperature 84 °F -  
Max Temperature 90 °F 91 °F 93 °F (2003)
Min Temperature 79 °F 76 °F 75 °F (1997)
Cooling Degree Days 20    
Growing Degree Days 34 (Base 50)    
Moisture  
Dew Point 74 °F    
Average Humidity 73    
Maximum Humidity 84    
Minimum Humidity 42    
Precipitation  
Precipitation 0.00 in 0.03 in - ()
Sea Level Pressure  
Sea Level Pressure 29.83 in    
Wind  
Wind Speed 15 mph ()    
Max Wind Speed 23 mph    
Max Gust Speed -    
Visibility 6.0 miles    
Events      
Averages and records for this station are not official NWS values.
T = Trace of Precipitation, MM = Missing Value Source: Averaged Metar Reports

Daily Weather History Graph

Daily Weather History Graph

Search for Another Location

Airport:

Trip Planner

Search our weather history database for the weather conditions in past years. The results will help you decide how hot, cold, wet, or windy it might be!

Date:

Astronomy

Mar. 28, 2013 Rise Set
Actual Time 5:58 AM COT 6:09 PM COT
Civil Twilight 5:37 AM COT 6:31 PM COT
Nautical Twilight 5:12 AM COT 6:55 PM COT
Astronomical Twilight 4:48 AM COT 7:20 PM COT
Moon 7:32 PM COT (3/28) 6:45 AM COT (3/28)
Length of Visible Light 12h 53m
Length of Day
12h 11m
Full, 98% of the Moon is Illuminated
Mar 28
Full
Apr 2
Last Quarter
Apr 10
New
Apr 18
First Quarter
Apr 25
Full

Hourly Weather History & Observations

Time (COT) Temp. Heat Index Dew Point Humidity Pressure Visibility Wind Dir Wind Speed Gust Speed Precip Events Conditions
12:00 AM 80.6 °F 86.2 °F 75.2 °F 84% 29.84 in 6.2 mi NNE 18.4 mph - N/A   Mostly Cloudy
1:00 AM 81 °F - 75 °F 78% 29.83 in 6 mi NE 17.9 mph - -   Haze
1:00 AM 80.6 °F 86.2 °F 75.2 °F 84% 29.82 in 6.2 mi NE 18.4 mph - N/A   Mostly Cloudy
2:00 AM 80.6 °F 86.2 °F 75.2 °F 84% 29.80 in 6.2 mi NE 18.4 mph - N/A   Mostly Cloudy
3:00 AM 80.6 °F 86.2 °F 75.2 °F 84% 29.77 in 6.2 mi NE 18.4 mph - N/A   Scattered Clouds
4:00 AM 80 °F - 75 °F 81% 29.79 in 6 mi NE 22.4 mph - -   Haze
4:00 AM 80.6 °F 86.2 °F 75.2 °F 84% 29.78 in - NE 23.0 mph - N/A   Clear
5:00 AM 80.6 °F 86.2 °F 75.2 °F 84% 29.80 in - NE 18.4 mph - N/A   Clear
6:00 AM 78.8 °F - 73.4 °F 83% 29.80 in 5.0 mi NE 18.4 mph - N/A   Partly Cloudy
7:00 AM 81 °F - 73 °F 71% 29.85 in 5 mi NE 6.7 mph - -   Haze
7:00 AM 80.6 °F 85.4 °F 73.4 °F 79% 29.84 in 5.0 mi NE 5.8 mph - N/A   Scattered Clouds
8:00 AM 82.4 °F 88.2 °F 73.4 °F 74% 29.86 in 6.2 mi NE 9.2 mph - N/A   Scattered Clouds
9:00 AM 86.0 °F 91.8 °F 71.6 °F 62% 29.89 in 6.2 mi ESE 15.0 mph - N/A   Scattered Clouds
10:00 AM 87 °F - 72 °F 53% 29.91 in 6 mi ENE 17.9 mph - -   Haze
10:00 AM 87.8 °F 93.8 °F 71.6 °F 58% 29.90 in 6.2 mi ENE 17.3 mph - N/A   Partly Cloudy
11:00 AM 87.8 °F 93.8 °F 71.6 °F 58% 29.89 in 6.2 mi ENE 12.7 mph - N/A   Scattered Clouds
12:00 PM 89.6 °F 96.2 °F 71.6 °F 55% 29.88 in 6.2 mi NE 15.0 mph - N/A   Scattered Clouds
1:00 PM 89 °F - 69 °F 42% 29.86 in 6 mi NNE 17.9 mph - -   Haze
1:00 PM 89.6 °F 94.7 °F 69.8 °F 52% 29.85 in 6.2 mi NNE 18.4 mph - N/A   Partly Cloudy
2:00 PM 87.8 °F 95.6 °F 73.4 °F 62% 29.82 in - NE 17.3 mph - N/A   Clear
3:00 PM 87.8 °F 95.6 °F 73.4 °F 62% 29.80 in 6.2 mi NE 19.6 mph - N/A   Partly Cloudy
4:00 PM 85 °F - 73 °F 61% 29.80 in 6 mi NNE 22.4 mph - -   Haze
4:00 PM 84.2 °F 90.9 °F 73.4 °F 70% 29.79 in 6.2 mi NNE 23.0 mph - N/A   Partly Cloudy
5:00 PM 82.4 °F 88.2 °F 73.4 °F 74% 29.79 in 6.2 mi NE 15.0 mph - N/A   Partly Cloudy
6:00 PM 82.4 °F 89.5 °F 75.2 °F 79% 29.80 in 6.2 mi NE 11.5 mph - N/A   Partly Cloudy
7:00 PM 81 °F - 74 °F 75% 29.83 in 6 mi NNE 13.4 mph - -   Haze
7:00 PM 80.6 °F 86.2 °F 75.2 °F 84% 29.82 in 6.2 mi NNE 12.7 mph - N/A   Scattered Clouds
8:00 PM 80.6 °F 86.2 °F 75.2 °F 84% 29.83 in 6.2 mi NNE 13.8 mph - N/A   Scattered Clouds
9:00 PM 80.6 °F 86.2 °F 75.2 °F 84% 29.84 in 6.2 mi NE 11.5 mph - N/A   Scattered Clouds
10:00 PM 81 °F - 76 °F 80% 29.87 in 6 mi NE 17.9 mph - -   Haze
10:00 PM 80.6 °F 86.2 °F 75.2 °F 84% 29.86 in 6.2 mi NE 18.4 mph - N/A   Scattered Clouds
11:00 PM 80.6 °F 86.2 °F 75.2 °F 84% 29.86 in 6.2 mi NE 17.3 mph - N/A   Scattered Clouds